[[{"header":{"parameterUnit":"m.s-1","parameterCategory":1,"la1":30.2991,"la2":30.254,"lo1":-89.0895,"lo2":-89.0444,"dy":0.0017,"dx":0.0017,"nx":28,"ny":28,"refTime":"2025-06-08T21:00:00:Z","depth":0,"parameterNumber":2,"parameterNumberName":"U-component_of_WINDS"},"data":[0,0,0,0,0,0,0,0,0,0,0,0,0,0,0,0,0,0,0,0,0,0,0,0,0,0,0,0,0,0,0,0,0,0,0,0,0,0,0,0,0,0,0,0,0,0,0,0,0,0,0,0,0,0,0,0,0,0,0.8208,0.8208,0,0.823,0.823,0.8231,0.8216,0.8215,0.8215,0.8214,0.8238,0.8239,0.824,0,0,0,0,0,0,0,0,0,0,0,0,0,0.8155,0.8156,0.8208,0.8208,0.8208,0.823,0.823,0.8231,0.8216,0.8215,0.8215,0.8214,0.8237,0.8239,0.824,0,0,0,0,0,0,0,0,0,0,0,0,0,0.8178,0.8156,0.8208,0.8204,0.8204,0.823,0.8231,0.8231,0.8216,0.8215,0.8214,0.8213,0.8237,0.8239,0.824,0.8272,0,0,0.8246,0.8247,0,0,0,0,0,0,0,0,0.8176,0.818,0.8204,0.8204,0.8204,0.8219,0.822,0.8245,0.8217,0.8212,0.8214,0.8213,0.8232,0.8235,0.8241,0.8274,0.8275,0.8246,0.8248,0.8248,0.8249,0,0,0,0,0,0,0,0.8175,0.8179,0.8217,0.8204,0.8204,0.8202,0.8204,0.8225,0.8227,0.8212,0.8211,0.8214,0.8232,0.8239,0.8241,0.8275,0.8246,0.8248,0.8249,0.825,0.8338,0.8339,0,0,0,0,0,0,0.8173,0.8177,0.8216,0.8217,0.8187,0.8203,0.8206,0.8215,0.8227,0.8228,0.8215,0.8213,0.8237,0.8239,0.8242,0.8282,0.8248,0.825,0.8251,0.8337,0.8338,0.8339,0,0,0,0,0,0,0.8172,0.8177,0.8215,0.8197,0.8202,0.8205,0.8216,0.8216,0.8223,0.8229,0.823,0.8221,0.8236,0.824,0.8266,0.8283,0.8251,0.8253,0.8335,0.8337,0.8339,0.8362,0,0,0,0,0,0,0.8171,0.8177,0.8188,0.8197,0.8203,0.8237,0.8217,0.8218,0.8227,0.8225,0.8235,0.8236,0.8235,0.8263,0.8268,0.8285,0.8254,0.8334,0.8336,0.8338,0.836,0.8364,0.8368,0,0,0,0,0,0.8169,0.8193,0.8189,0.8193,0.8217,0.8238,0.8242,0.824,0.8228,0.824,0.8244,0.8236,0.828,0.8266,0.8271,0.8289,0.8333,0.8335,0.8338,0.8358,0.8363,0.8368,0,0,0,0,0,0,0.8185,0.8194,0.8189,0.8217,0.8227,0.8236,0.8251,0.8245,0.8259,0.8257,0.8254,0.8257,0.8284,0.8289,0.8273,0.8322,0.8305,0.8309,0.8318,0.8323,0.8328,0.8326,0.8256,0,0,0,0,0,0.8192,0.8208,0.8215,0.8239,0.8245,0.8247,0.8256,0.8254,0.8265,0.8269,0.8275,0.8285,0.8302,0.8313,0.8328,0.836,0.8364,0.8376,0.838,0.8383,0.8387,0.8407,0.8413,0.8348,0.8348,0.8348,0,0,0.8206,0.8213,0.8224,0.8243,0.825,0.8268,0.8251,0.827,0.8283,0.8272,0.8297,0.8302,0.8314,0.8344,0.8357,0.8349,0.8406,0.8387,0.839,0.8391,0.841,0.8417,0.8422,0.835,0.835,0.835,0,0,0.8242,0.8248,0.827,0.8278,0.829,0.8292,0.8297,0.8307,0.831,0.8336,0.8328,0.8345,0.8373,0.8382,0.8391,0.8433,0.8427,0.8438,0.8461,0.848,0.8485,0.849,0.8507,0.8513,0.8441,0.8441,0.8442,0,0.8258,0.8284,0.8282,0.8302,0.8312,0.8303,0.8326,0.8334,0.835,0.8358,0.8348,0.8385,0.8392,0.8425,0.8436,0.8442,0.845,0.8437,0.8485,0.8489,0.8494,0.851,0.8516,0.8443,0.8443,0.8443,0.8442,0,0.8305,0.8323,0.8339,0.8356,0.8368,0.8389,0.8391,0.8403,0.8401,0.8404,0.8432,0.8441,0.8459,0.8466,0.8463,0.85,0.8495,0.8485,0.8467,0.8501,0.8516,0.8522,0.8445,0.8444,0.8444,0.8444,0,0,0.835,0.8367,0.8373,0.8382,0.8395,0.841,0.8432,0.845,0.8461,0.8473,0.8493,0.8518,0.851,0.852,0.8518,0.8535,0.8571,0.8524,0.8524,0.8534,0.8614,0.8622,0.8629,0.8566,0.8568,0.8568,0.8614,0,0.8387,0.8426,0.8425,0.8461,0.8479,0.8472,0.8492,0.8503,0.8507,0.8524,0.8529,0.8548,0.8534,0.8541,0.8557,0.8563,0.8587,0.8559,0.8586,0.8587,0.8584,0.8637,0.8645,0.8687,0.8619,0.862,0.8621,0,0.8436,0.8451,0.8489,0.8502,0.851,0.8527,0.8545,0.8561,0.8574,0.8576,0.8588,0.8585,0.8609,0.8591,0.8625,0.8607,0.8618,0.8622,0.8624,0.8627,0.8607,0.8643,0.87,0.8707,0.863,0.8629,0.8629,0,0.8467,0.8496,0.8524,0.8531,0.8547,0.856,0.8567,0.8579,0.8591,0.8607,0.8615,0.8633,0.8644,0.8659,0.8661,0.8647,0.8696,0.8678,0.87,0.87,0.8711,0.8711,0.8772,0.8716,0.8716,0.8716,0.8716,0,0.8509,0.8533,0.8538,0.8555,0.8582,0.8583,0.861,0.8616,0.8628,0.8647,0.8641,0.8659,0.8661,0.868,0.8682,0.8712,0.8716,0.8719,0.872,0.872,0.872,0.8728,0.8726,0.8718,0.8717,0.8717,0.8717,0,0.8549,0.8553,0.8582,0.8596,0.86,0.862,0.8631,0.8648,0.8653,0.8677,0.8683,0.869,0.8712,0.8716,0.8742,0.8744,0.8779,0.8776,0.8775,0.8775,0.8798,0.8796,0.8868,0.8878,0.8814,0.8815,0.8815,0,0.8576,0.8594,0.861,0.8623,0.8631,0.8651,0.8663,0.8665,0.8678,0.8697,0.8712,0.8734,0.8751,0.8788,0.8796,0.8817,0.8815,0.8839,0.8818,0.8819,0.8817,0.8817,0.8819,0.8843,0.8843,0.8844,0.8844,0,0.8624,0.8626,0.8644,0.8664,0.8679,0.8694,0.8709,0.872,0.8724,0.8739,0.8762,0.8776,0.8804,0.8827,0.8848,0.8856,0.8852,0.8851,0.8858,0.8859,0.8858,0.8861,0.8787,0.8849,0.8849,0.8848,0.8848,0.8848,0.8659,0.8677,0.8691,0.8712,0.8724,0.8738,0.8755,0.8763,0.8782,0.8805,0.8805,0.8831,0.8846,0.8874,0.8884,0.8906,0.8898,0.8907,0.891,0.8912,0.8915,0.8854,0.8909,0.8909,0.8909,0.8909,0.8909,0,0.8709,0.8719,0.8738,0.8759,0.8777,0.8771,0.8788,0.8803,0.8826,0.884,0.8858,0.8886,0.8909,0.892,0.8942,0.8958,0.8956,0.8964,0.8963,0.8965,0.892,0.8913,0.8964,0.8964,0.8964,0.8964,0.8964,0.8964,0.8737,0.8766,0.877,0.8806,0.8816,0.8841,0.8851,0.8866,0.8878,0.8909,0.8928,0.8935,0.8949,0.8973,0.8994,0.8997,0.9006,0.9015,0.9017,0.8974,0.8968,0.8963,0.8956,0.9016,0.9017,0.9061,0.9061,0.9062]},{"header":{"parameterUnit":"m.s-1","parameterCategory":1,"la1":30.2991,"la2":30.254,"lo1":-89.0895,"lo2":-89.0444,"dy":0.0017,"dx":0.0017,"nx":28,"ny":28,"refTime":"2025-06-08T21:00:00:Z","depth":0,"parameterNumber":3,"parameterNumberName":"V-component_of_WINDS"},"data":[0,0,0,0,0,0,0,0,0,0,0,0,0,0,0,0,0,0,0,0,0,0,0,0,0,0,0,0,0,0,0,0,0,0,0,0,0,0,0,0,0,0,0,0,0,0,0,0,0,0,0,0,0,0,0,0,0,0,0.8663,0.8665,0,0.8886,0.8889,0.8892,0.8924,0.8922,0.892,0.8918,0.9148,0.9156,0.9164,0,0,0,0,0,0,0,0,0,0,0,0,0,0.8259,0.8266,0.8662,0.8665,0.8668,0.8886,0.8889,0.8892,0.8925,0.8922,0.892,0.8918,0.9146,0.9155,0.9165,0,0,0,0,0,0,0,0,0,0,0,0,0,0.8454,0.8269,0.8662,0.871,0.8717,0.8885,0.8889,0.8893,0.8925,0.8922,0.8919,0.8916,0.9143,0.9154,0.9166,0.9302,0,0,0.9203,0.9208,0,0,0,0,0,0,0,0,0.8443,0.8469,0.8701,0.8707,0.8715,0.8874,0.8831,0.903,0.8926,0.8846,0.8918,0.8915,0.906,0.9078,0.9127,0.9313,0.9322,0.9204,0.9211,0.9216,0.922,0,0,0,0,0,0,0,0.8429,0.8459,0.8751,0.8704,0.8713,0.872,0.8744,0.8869,0.8968,0.8853,0.8856,0.8882,0.9063,0.9115,0.9133,0.9326,0.9204,0.9214,0.9222,0.9226,0.9626,0.9629,0,0,0,0,0,0,0.8407,0.8448,0.8744,0.8758,0.8569,0.873,0.8757,0.8826,0.8966,0.8985,0.8884,0.8883,0.9096,0.9119,0.9141,0.9304,0.9216,0.9228,0.9235,0.9623,0.9627,0.9631,0,0,0,0,0,0,0.8398,0.8433,0.8735,0.8604,0.8643,0.874,0.8818,0.8832,0.8885,0.899,0.9007,0.892,0.9095,0.9124,0.926,0.9313,0.9233,0.9244,0.9619,0.9624,0.9629,0.9635,0,0,0,0,0,0,0.8387,0.843,0.8484,0.8605,0.8649,0.8852,0.8821,0.8839,0.8905,0.8905,0.9028,0.9045,0.9095,0.9242,0.9272,0.9328,0.9253,0.9614,0.9621,0.9627,0.963,0.964,0.9647,0,0,0,0,0,0.8372,0.8478,0.8487,0.8522,0.8719,0.8855,0.888,0.8935,0.891,0.8963,0.903,0.9041,0.9302,0.9255,0.929,0.935,0.9611,0.9619,0.9627,0.9627,0.9638,0.9647,0,0,0,0,0,0,0.8364,0.8495,0.8506,0.8655,0.8743,0.886,0.893,0.8946,0.9044,0.904,0.9103,0.913,0.9262,0.932,0.9265,0.9485,0.9454,0.9469,0.9443,0.9454,0.9462,0.9445,0.9263,0,0,0,0,0,0.8379,0.8478,0.8588,0.8708,0.8752,0.8833,0.8894,0.8928,0.9022,0.906,0.9137,0.9227,0.9329,0.9395,0.9495,0.9638,0.9663,0.9697,0.9705,0.9711,0.9723,0.9798,0.9812,0.9656,0.9656,0.9655,0,0,0.8412,0.8496,0.8555,0.8708,0.8781,0.888,0.8864,0.8973,0.9046,0.9077,0.9208,0.9267,0.9372,0.951,0.9575,0.9563,0.9771,0.9721,0.9726,0.9734,0.9807,0.9822,0.9835,0.9661,0.966,0.9659,0,0,0.8522,0.8597,0.8703,0.8774,0.8883,0.8935,0.896,0.9074,0.9113,0.9246,0.9269,0.9357,0.9533,0.9605,0.9664,0.9794,0.9806,0.9825,0.9869,0.9941,0.9953,0.9964,1.0006,1.0021,0.9836,0.9836,0.9836,0,0.8549,0.8701,0.8756,0.8861,0.8925,0.8955,0.906,0.9127,0.9263,0.9306,0.929,0.9506,0.958,0.9732,0.9763,0.9812,0.9839,0.9811,0.9947,0.9959,0.997,1.0011,1.0027,0.9837,0.9837,0.9837,0.9837,0,0.8727,0.8831,0.8903,0.9031,0.9104,0.9209,0.9277,0.9344,0.9369,0.9422,0.9554,0.9641,0.9757,0.9796,0.9824,0.9951,0.9939,0.9934,0.9904,0.9985,1.0024,1.0041,0.9839,0.9839,0.9838,0.9838,0,0,0.8842,0.8993,0.9019,0.9074,0.9193,0.9275,0.9378,0.949,0.9544,0.9635,0.9722,0.9866,0.986,0.9927,0.9963,1.0026,1.0117,1.0013,1.0016,1.0026,1.0257,1.0258,1.0276,1.0125,1.0129,1.0131,1.0247,0,0.8963,0.915,0.9198,0.9356,0.945,0.9476,0.9566,0.9647,0.9698,0.9784,0.984,0.994,0.9927,0.9967,1.003,1.0092,1.0163,1.0085,1.0204,1.0208,1.0175,1.0297,1.0301,1.0406,1.0263,1.0266,1.0268,0,0.9131,0.9222,0.9388,0.9489,0.9531,0.9611,0.9713,0.9797,0.9887,0.9919,0.9991,1.0019,1.0124,1.0088,1.0233,1.0178,1.0229,1.0266,1.0271,1.0283,1.0242,1.031,1.0441,1.0455,1.0293,1.0291,1.0289,0,0.9193,0.9358,0.9477,0.9524,0.9646,0.9701,0.9754,0.9842,0.9903,0.9993,1.0032,1.0133,1.0188,1.0264,1.0317,1.0286,1.0455,1.0425,1.0482,1.048,1.0516,1.0513,1.0655,1.0552,1.0552,1.0552,1.0552,0,0.9322,0.9422,0.9505,0.9579,0.9689,0.9743,0.9851,0.9905,0.9981,1.0063,1.0093,1.0169,1.0235,1.0319,1.036,1.0471,1.0496,1.0523,1.0532,1.0519,1.0515,1.0553,1.0546,1.0556,1.0555,1.0554,1.0554,0,0.9411,0.9471,0.9602,0.9704,0.9732,0.9809,0.9896,0.9967,1.0016,1.0119,1.0146,1.0224,1.0324,1.0383,1.0511,1.0538,1.0659,1.0667,1.0628,1.0632,1.0684,1.0677,1.0854,1.0878,1.0761,1.0762,1.0763,0,0.9489,0.9565,0.9675,0.9731,0.9784,0.9875,0.9937,0.9991,1.0054,1.0159,1.0216,1.0317,1.0401,1.0558,1.0625,1.0721,1.0729,1.0784,1.0744,1.0726,1.0726,1.072,1.0726,1.0791,1.0792,1.0793,1.0793,0,0.9619,0.9643,0.9731,0.9828,0.99,0.9979,1.0058,1.0102,1.0169,1.0237,1.0339,1.0403,1.053,1.0629,1.0729,1.0782,1.0797,1.0805,1.0823,1.0809,1.0782,1.0794,1.0644,1.0801,1.08,1.08,1.0799,1.0799,0.9703,0.977,0.9855,0.995,1.0014,1.0086,1.0155,1.0211,1.0297,1.0403,1.043,1.0535,1.0618,1.0754,1.0808,1.0889,1.0881,1.0907,1.0914,1.0919,1.0918,1.077,1.0908,1.0908,1.0908,1.0908,1.0908,0,0.9831,0.9886,0.9973,1.008,1.0154,1.0161,1.0247,1.0307,1.0399,1.0475,1.0556,1.0669,1.0763,1.0835,1.0931,1.0981,1.0991,1.1005,1.1,1.1011,1.0923,1.0896,1.0995,1.0995,1.0995,1.0995,1.0995,1.0995,0.9907,1.0019,1.0052,1.0194,1.0249,1.0351,1.0399,1.0463,1.0523,1.0648,1.0726,1.0772,1.0845,1.0945,1.103,1.1049,1.1081,1.1093,1.1112,1.1028,1.1018,1.1009,1.0985,1.11,1.1101,1.1194,1.1195,1.1196]}]]